Location: Newark
(47.5833°N, 8.1500°E)
Time: 08:26:28
(UTC+00:00)

Vanguard 1 - Pass Details

Date: 30 October 2020
Orbit: 650 x 3833 km, 34.2° (Epoch: 29 November)

Event Time Altitude Azimuth Distance (km) Brightness Sun altitude
Rises 17:08:19 0° 278° (W) 7,935 16.3 -9.9°
Reaches altitude 10° 17:14:47 10° 271° (W) 6,724 15.8 -11.0°
Maximum altitude 17:31:45 33° 217° (SW) 4,020 13.6 -13.8°
Drops below altitude 10° 17:43:03 10° 160° (SSE) 4,463 13.2 -15.7°
Sets 17:46:20 0° 150° (SSE) 5,067 13.5 -16.3°
